User: anonymous   Login
Location: Igri�s
(42.2144°N, 0.4320°W)
Time: 15:22:11
(UTC+00:00)
Language:

Resurs 01 Rocket - Orbit

View from above orbital plane
View from above orbital plane
View from above satellite
View from above satellite

Ground track
Ground track

The orbit data is extracted from the following two-line orbital elements,

1 23343U 94074B   20296.20522399  .00000018  00000-0  98205-5 0  9998
2 23343  97.9838 347.9831 0008270 100.9420 295.0973 14.76841085397333
Epoch (UTC): 22 October 2020 04:55:31
Eccentricity: 0.0008270
inclination: 97.9838°
perigee height: 633 km
apogee height: 645 km
right ascension of ascending node: 347.9831°
argument of perigee: 100.9420°
revolutions per day: 14.76841085
mean anomaly at epoch: 295.0973°
orbit number at epoch: 39733

The dashed part of the orbit path shows where the satellite is in the earth's shadow,  

DLR